Location: Kiltepe
(36.4752°N, 30.0120°E)
Time: 19:54:50
(UTC+00:00)

CSL-04 Rocket - Pass Details

Date: 03 August 2024
Orbit: 804 x 859 km, 98.7° (Epoch: 14 September)

Event Time Altitude Azimuth Distance (km) Brightness Sun altitude
Exits shadow 17:50:44 - 160° (SSE) 3,105 6.2 -9.4°
Reaches altitude 10° 17:52:19 10° 158° (SSE) 2,483 5.7 -9.6°
Maximum altitude 17:57:50 74° 75° (ENE) 895 3.7 -10.6°
Drops below altitude 10° 18:03:23 10° 351° (N) 2,500 6.8 -11.5°
Sets 18:05:46 0° 350° (N) 3,437 7.6 -11.9°
